Date,TemperatureHighF,TemperatureAvgF,TemperatureLowF,DewpointHighF,DewpointAvgF,DewpointLowF,HumidityHigh,HumidityAvg,HumidityLow,PressureMaxIn,PressureMinIn,WindSpeedMaxMPH,WindSpeedAvgMPH,GustSpeedMaxMPH,PrecipitationSumIn
2013-1-1,37.5,34.1,32.3,37.0,33.3,31.0,98,96,92,30.23,30.06,4,1,8,0.10
2013-1-2,33.0,30.2,28.0,32.0,28.2,25.0,97,92,85,30.30,30.14,5,1,7,0.10
2013-1-3,38.3,28.5,23.6,29.0,24.4,22.0,97,85,60,30.44,30.29,4,0,8,0.01
2013-1-4,34.7,26.9,18.9,26.0,21.4,17.0,94,80,65,30.52,30.43,6,1,10,0.01
2013-1-5,39.3,29.3,17.0,30.0,23.4,16.0,95,80,58,30.56,30.34,4,0,7,0.01
2013-1-6,43.6,36.6,32.2,33.0,29.7,26.0,89,77,59,30.38,30.16,11,1,18,0.01
2013-1-7,44.7,32.7,25.3,27.0,23.9,22.0,89,71,48,30.55,30.38,9,1,11,0.00
2013-1-8,54.0,34.9,20.4,36.0,27.7,19.0,95,78,43,30.54,30.40,8,1,14,0.00
2013-1-9,50.1,41.4,30.8,49.0,39.9,30.0,98,94,84,30.59,30.42,3,0,4,0.08
2013-1-10,58.5,48.3,40.1,49.0,45.0,40.0,99,89,67,30.59,30.29,2,0,6,0.01
2013-1-11,65.7,58.4,50.3,58.0,52.5,46.0,90,80,71,30.28,30.05,16,4,22,0.01
2013-1-12,69.8,61.6,55.3,62.0,57.9,55.0,99,88,71,30.15,30.00,6,1,14,0.00
2013-1-13,67.0,60.5,55.2,58.0,55.5,52.0,98,84,65,30.07,29.95,7,1,16,0.31
2013-1-14,57.6,40.4,33.0,57.0,39.2,32.0,98,95,93,30.39,30.04,7,1,14,0.52
2013-1-15,35.5,33.6,31.6,35.0,32.9,31.0,98,97,95,30.36,30.11,5,1,10,1.02
2013-1-16,40.5,36.6,33.4,40.0,35.9,33.0,98,97,94,30.18,30.04,6,1,11,0.54
2013-1-17,37.2,32.0,27.1,37.0,30.8,26.0,98,95,86,30.41,30.13,7,1,8,0.19
2013-1-18,37.1,29.0,22.8,32.0,26.3,22.0,97,90,76,30.63,30.42,3,0,8,0.17
2013-1-19,47.1,32.7,19.9,34.0,25.1,19.0,96,77,47,30.52,30.21,9,1,15,0.07
2013-1-20,48.6,37.9,28.3,34.0,25.0,14.0,91,63,30,30.23,30.16,10,1,11,0.07
2013-1-21,40.4,29.3,21.1,22.0,14.7,2.0,94,59,31,30.25,30.09,13,2,27,0.00
2013-1-22,23.5,17.8,11.6,4.0,-0.8,-5.0,64,45,31,30.44,30.24,10,2,13,0.00
2013-1-23,37.0,21.5,9.1,26.0,9.8,1.0,82,62,47,30.50,30.17,4,1,15,0.00
2013-1-24,37.9,23.1,15.2,26.0,8.6,-2.0,71,55,34,30.59,30.17,13,3,23,0.00
2013-1-25,32.1,25.7,17.3,31.0,21.4,7.0,97,84,63,30.51,30.17,3,0,7,0.00
2013-1-26,31.4,27.6,22.4,30.0,25.5,21.0,96,92,87,30.52,30.28,4,0,7,0.00
2013-1-27,42.8,30.9,17.8,38.0,28.5,16.0,96,91,82,30.57,30.42,2,0,4,0.11
2013-1-28,56.6,46.2,36.0,49.0,42.9,34.0,97,89,73,30.42,30.26,15,3,23,0.09
2013-1-29,67.0,55.0,44.0,56.0,50.1,44.0,99,85,64,30.27,29.91,13,2,17,0.15
2013-1-30,66.8,56.2,39.1,57.0,51.9,36.0,97,86,70,29.91,29.45,22,4,30,1.82
2013-1-31,38.6,30.5,27.2,37.0,24.2,19.0,92,78,68,30.05,29.55,10,2,23,1.85